URO45H EICK-EGBB

Flight info

Callsign URO45H
Flight time N/A
Altitude 39000
Route TISMO1S TISMO DCT BOFUM Q37 MALUD
Aircraft A346/H-SDE2E3FGHIJ3J4J5M1RWXY/LB1D1

Departure

Time 2026-05-07 23:51
Airport Cork International Airport (EICK)

Arrival

Time N/A
Airport Birmingham Airport (EGBB)
Time Latitude Longitude Altitude Speed Heading
2026-05-07 23:33 51.85195 -8.49249 513 ft 0 kts 70°
2026-05-07 23:46 51.85193 -8.49258 513 ft 0 kts 70°
2026-05-07 23:46 51.85184 -8.49297 513 ft 0 kts 70°
2026-05-07 23:46 51.85175 -8.49338 513 ft 0 kts 70°
2026-05-07 23:46 51.85166 -8.49378 513 ft 0 kts 70°
2026-05-07 23:47 51.85162 -8.49400 513 ft 0 kts 70°
2026-05-07 23:48 51.85162 -8.49399 513 ft 0 kts 72°
2026-05-07 23:48 51.85162 -8.49388 513 ft 2 kts 99°
2026-05-07 23:48 51.85149 -8.49372 513 ft 3 kts 170°
2026-05-07 23:49 51.85139 -8.49378 513 ft 2 kts 219°
2026-05-07 23:49 51.85134 -8.49401 513 ft 4 kts 257°
2026-05-07 23:49 51.85122 -8.49457 513 ft 7 kts 239°
2026-05-07 23:49 51.85079 -8.49521 513 ft 10 kts 207°
2026-05-07 23:50 51.85006 -8.49582 513 ft 13 kts 194°
2026-05-07 23:50 51.84810 -8.49512 513 ft 62 kts 160°
2026-05-07 23:50 51.84133 -8.49116 513 ft 142 kts 160°
2026-05-07 23:50 51.83063 -8.48480 942 ft 171 kts 163°
2026-05-07 23:51 51.81924 -8.47881 1903 ft 173 kts 167°
2026-05-07 23:51 51.80747 -8.47376 2854 ft 178 kts 176°
2026-05-07 23:51 51.79468 -8.47326 3599 ft 190 kts 174°
2026-05-07 23:51 51.78124 -8.46813 4141 ft 208 kts 159°
2026-05-07 23:52 51.76954 -8.45304 4635 ft 230 kts 124°
2026-05-07 23:52 51.76405 -8.42759 5012 ft 252 kts 98°
2026-05-07 23:52 51.76246 -8.39878 5721 ft 268 kts 94°
2026-05-07 23:52 51.76168 -8.36807 6344 ft 278 kts 93°
2026-05-07 23:53 51.76112 -8.33679 7421 ft 277 kts 93°
2026-05-07 23:53 51.76061 -8.30526 8443 ft 281 kts 92°
2026-05-07 23:53 51.76004 -8.27326 9375 ft 288 kts 92°
2026-05-07 23:53 51.75944 -8.24058 10273 ft 294 kts 93°
2026-05-07 23:54 51.75908 -8.20667 10940 ft 310 kts 88°
2026-05-07 23:54 51.76218 -8.17127 11582 ft 326 kts 79°
2026-05-07 23:54 51.76711 -8.13453 12193 ft 343 kts 78°
2026-05-07 23:54 51.77242 -8.09575 12719 ft 362 kts 78°
2026-05-07 23:55 51.77778 -8.05485 13253 ft 380 kts 79°
2026-05-07 23:55 51.78311 -8.01234 13996 ft 390 kts 80°
2026-05-07 23:55 51.78837 -7.96914 14861 ft 394 kts 80°
2026-05-07 23:55 51.79177 -7.92561 15559 ft 395 kts 92°
2026-05-07 23:56 51.78772 -7.88223 15752 ft 386 kts 110°
2026-05-07 23:56 51.77606 -7.84418 15375 ft 376 kts 128°
2026-05-07 23:56 51.75751 -7.81481 14691 ft 373 kts 148°
2026-05-07 23:56 51.73409 -7.79809 14161 ft 366 kts 169°
2026-05-07 23:57 51.70906 -7.79585 13652 ft 359 kts 189°
2026-05-07 23:57 51.68547 -7.80796 12990 ft 356 kts 209°
2026-05-07 23:57 51.66610 -7.83250 12012 ft 354 kts 229°
2026-05-07 23:57 51.65110 -7.86385 11755 ft 353 kts 234°
2026-05-07 23:58 51.63686 -7.89644 11570 ft 356 kts 235°
2026-05-07 23:58 51.62400 -7.93023 10945 ft 352 kts 248°
2026-05-07 23:58 51.62018 -7.96865 10267 ft 343 kts 273°
2026-05-07 23:58 51.62279 -8.00547 9742 ft 327 kts 276°
2026-05-07 23:59 51.62556 -8.04111 9132 ft 314 kts 275°
2026-05-07 23:59 51.62791 -8.07551 8544 ft 303 kts 275°
2026-05-07 23:59 51.63000 -8.10882 7959 ft 294 kts 274°
2026-05-07 23:59 51.63186 -8.14131 7392 ft 286 kts 274°
2026-05-08 00:00 51.63357 -8.17287 6837 ft 280 kts 275°
2026-05-08 00:00 51.63520 -8.20384 6269 ft 275 kts 275°
2026-05-08 00:00 51.63682 -8.23428 5703 ft 270 kts 274°
2026-05-08 00:00 51.63840 -8.26420 5129 ft 265 kts 274°
2026-05-08 00:01 51.63993 -8.29361 4567 ft 262 kts 272°
2026-05-08 00:01 51.64136 -8.32233 4073 ft 258 kts 273°
2026-05-08 00:01 51.64367 -8.35085 3753 ft 257 kts 287°
2026-05-08 00:01 51.65324 -8.37514 3441 ft 259 kts 317°
2026-05-08 00:02 51.66831 -8.39019 3271 ft 253 kts 334°
2026-05-08 00:02 51.68468 -8.39966 3116 ft 246 kts 340°
2026-05-08 00:02 51.70076 -8.40789 2940 ft 239 kts 340°
2026-05-08 00:02 51.71597 -8.41657 2888 ft 225 kts 338°
2026-05-08 00:03 51.73039 -8.42530 2753 ft 216 kts 337°
2026-05-08 00:03 51.74412 -8.43335 2581 ft 201 kts 338°
2026-05-08 00:03 51.75656 -8.44032 2418 ft 184 kts 336°
2026-05-08 00:03 51.76829 -8.44775 2090 ft 177 kts 335°
2026-05-08 00:04 51.77962 -8.45476 1757 ft 171 kts 337°
2026-05-08 00:04 51.79064 -8.46112 1432 ft 165 kts 338°
2026-05-08 00:04 51.80128 -8.46751 1172 ft 162 kts 336°
2026-05-08 00:04 51.81180 -8.47402 983 ft 162 kts 339°
2026-05-08 00:05 51.82247 -8.48002 775 ft 163 kts 338°
2026-05-08 00:05 51.83308 -8.48630 537 ft 159 kts 338°
2026-05-08 00:05 51.84184 -8.49144 512 ft 98 kts 340°
2026-05-08 00:05 51.84579 -8.49376 512 ft 23 kts 340°
2026-05-08 00:06 51.84642 -8.49414 491 ft 12 kts 340°